BEACONC [HTS] 1 01328C 65032A 21060.98750000 .00000017 00000-0 26499-4 0 609 2 01328 41.1869 7.5653 0259686 330.3034 329.3327 13.38643789 15 BEACONC [SGF] 1 01328C 65032A 21060.00000000 .00000048 00000-0 73093-4 0 606 2 01328 41.1870 11.7895 0259726 325.1687 250.4531 13.38643500 15 STARLETTE [DGF] 1 07646C 75010A 21061.00000000 .00000001 00000-0 11242-5 0 612 2 07646 49.8226 174.9533 0205795 156.9235 78.7581 13.82308961 15 STARLETTE [HTS] 1 07646C 75010A 21060.98750000 .00000017 00000-0 12923-4 0 602 2 07646 49.8224 175.0015 0205793 156.8816 16.5559 13.82308858 12 STARLETTE [SGF] 1 07646C 75010A 21060.00000000 .00000034 00000-0 26241-4 0 600 2 07646 49.8225 178.8998 0205794 153.6196 142.4498 13.82308689 14 LAGEOS1 [DGF] 1 08820C 76039A 21061.00000000 .00000001 00000-0 00000-0 0 614 2 08820 109.8221 237.1287 0045012 355.3084 104.1264 6.38664619 11 LAGEOS1 [HTS] 1 08820C 76039A 21060.97916667 .00000000 00000-0 00000-0 0 602 2 08820 109.8221 237.1215 0045011 355.3169 56.2226 6.38664608 18 LAGEOS1 [SGF] 1 08820C 76039A 21060.00000000 .00000000 00000-0 00000-0 0 601 2 08820 109.8219 236.7863 0045010 355.5249 324.9317 6.38664609 16 AJISAI [DGF] 1 16908C 86061A 21061.00000000 -.00000003 00000-0 -17801-4 0 611 2 16908 50.0105 331.7725 0011275 300.5030 272.0223 12.44493258 13 AJISAI [HTS] 1 16908C 86061A 21060.98611111 .00000010 00000-0 73751-4 0 609 2 16908 50.0105 331.8147 0011277 300.4355 209.8302 12.44493198 12 AJISAI [SGF] 1 16908C 86061A 21060.00000000 .00000007 00000-0 52415-4 0 601 2 16908 50.0107 334.8471 0011276 297.9125 111.8932 12.44493215 12 ETALON1 [DGF] 1 19751C 89001C 21061.00000000 -.00000000 00000-0 00000-0 0 612 2 19751 64.2131 138.6278 0023104 211.6051 220.6077 2.13156116 14 ETALON1 [HTS] 1 19751C 89001C 21060.93750000 -.00000000 00000-0 00000-0 0 604 2 19751 64.2132 138.6301 0023095 211.5236 172.7295 2.13156181 16 ETALON1 [SGF] 1 19751C 89001C 21060.00000000 -.00000000 00000-0 00000-0 0 600 2 19751 64.2128 138.6622 0023067 211.5439 173.3061 2.13156194 13 ETALON2 [DGF] 1 20026C 89039C 21059.00000000 -.00000000 00000-0 00000-0 0 594 2 20026 65.5353 16.4616 0018317 220.1557 308.0658 2.13203982 16 ETALON2 [HTS] 1 20026C 89039C 21060.93750000 -.00000000 00000-0 00000-0 0 602 2 20026 65.5352 16.3954 0018316 220.0720 355.2356 2.13204017 18 ETALON2 [SGF] 1 20026C 89039C 21060.00000000 -.00000000 00000-0 00000-0 0 608 2 20026 65.5354 16.4277 0018304 220.1172 355.6324 2.13203975 19 LAGEOS2 [DGF] 1 22195C 92070B 21061.00000000 .00000000 00000-0 00000-0 0 617 2 22195 52.6703 48.3758 0137450 62.1083 118.2578 6.47293571 16 LAGEOS2 [HTS] 1 22195C 92070B 21060.97916667 -.00000000 00000-0 00000-0 0 607 2 22195 52.6702 48.3893 0137441 62.0967 69.7130 6.47293571 19 LAGEOS2 [SGF] 1 22195C 92070B 21060.00000000 .00000000 00000-0 00000-0 0 605 2 22195 52.6699 49.0078 0137437 61.6703 308.0020 6.47293590 13 STELLA [DGF] 1 22824C 93061B 21061.00000000 .00000009 00000-0 36095-5 0 614 2 22824 98.9776 64.4550 0007431 85.0840 270.6769 14.27383364 19 STELLA [HTS] 1 22824C 93061B 21060.98750000 -.00000010 00000-0 -39457-5 0 600 2 22824 98.9777 64.4419 0007443 84.7286 206.8359 14.27383446 14 STELLA [SGF] 1 22824C 93061B 21060.00000000 -.00000028 00000-0 -11538-4 0 609 2 22824 98.9775 63.4283 0007443 87.3954 172.6763 14.27383598 18 LARETS [DGF] 1 27944C 03042F 21061.00000000 .00000033 00000-0 64566-5 0 613 2 27944 98.1476 188.8133 0011449 329.1238 141.5714 14.63200454 15 LARETS [HTS] 1 27944C 03042F 21060.98750000 .00000015 00000-0 28744-5 0 608 2 27944 98.1476 188.8006 0011498 329.4240 75.4664 14.63200479 10 LARETS [MCC] 1 27944C 03042F 21060.98958333 .00000015 00000-0 28214-5 0 609 2 27944 98.1476 188.8026 0011497 329.4076 86.4501 14.63200511 17 LARETS [SGF] 1 27944C 03042F 21060.00000000 -.00000003 00000-0 -65609-6 0 600 2 27944 98.1477 187.8251 0011526 332.6403 273.6709 14.63200573 18 TERRASARX [GFZ] 1 31698C 07026A 21061.54145833 .00000131 00000-0 62602-5 0 611 2 31698 97.4473 70.8647 0001708 97.8205 211.9617 15.19148068 13 GLONASS106 [COD] 1 32275C 07052A 21060.99979167 -.00000000 00000-0 00000-0 0 609 2 32275 66.0455 20.3535 0004143 277.1707 52.6161 2.13103814 13 GLONASS106 [NER] 1 32275C 07052A 21060.00000000 -.00000000 00000-0 00000-0 0 602 2 32275 66.0455 20.3870 0004208 276.8607 5.9199 2.13103775 10 GLONASS105 [COD] 1 32276C 07052B 21060.99979167 -.00000000 00000-0 00000-0 0 600 2 32276 66.0583 20.4466 0012176 326.3593 312.9601 2.13103221 18 GLONASS105 [NER] 1 32276C 07052B 21060.00000000 -.00000000 00000-0 00000-0 0 603 2 32276 66.0583 20.4800 0012225 326.0926 266.2228 2.13103177 18 GLONASS107 [COD] 1 32393C 07065A 21060.99979167 .00000000 00000-0 00000-0 0 603 2 32393 64.4920 257.5864 0005120 77.8433 140.0375 2.13102794 14 GLONASS107 [NER] 1 32393C 07065A 21060.00000000 .00000000 00000-0 00000-0 0 606 2 32393 64.4922 257.6208 0005144 77.5920 93.2792 2.13102829 14 GLONASS116 [COD] 1 36111C 09070A 21060.99979167 -.00000000 00000-0 00000-0 0 604 2 36111 64.2573 137.2677 0004588 307.5332 82.3077 2.13098946 12 GLONASS116 [NER] 1 36111C 09070A 21060.00000000 -.00000000 00000-0 00000-0 0 607 2 36111 64.2570 137.3020 0004560 308.4817 34.3623 2.13099018 15 COMPASSG1 [SHA] 1 36287C 10001A 21060.00000000 -.00000156 00000-0 00000-0 0 609 2 36287 0.4277 317.2569 0006297 261.3105 85.0107 1.00272402 13 GLONASS121 [COD] 1 36401C 10007B 21060.99979167 -.00000000 00000-0 00000-0 0 608 2 36401 65.9395 19.2569 0021414 2.4641 185.3756 2.13103470 11 GLONASS121 [NER] 1 36401C 10007B 21060.00000000 -.00000000 00000-0 00000-0 0 601 2 36401 65.9395 19.2904 0021407 2.1876 138.6469 2.13103427 17 CRYOSAT2 [ESA] 1 36508C 10013A 21061.00000000 .00000035 00000-0 87523-5 0 615 2 36508 92.0207 169.9739 0007875 68.0749 211.9022 14.51908010 16 TANDEMX [GFZ] 1 36605C 10030A 21061.54145833 .00000116 00000-0 55358-5 0 616 2 36605 97.4472 70.8672 0002214 96.5732 213.2098 15.19147933 15 GLONASS122 [COD] 1 37139C 10041C 21060.99979167 .00000000 00000-0 00000-0 0 604 2 37139 64.0914 256.8969 0029065 14.3350 65.2604 2.13100483 18 GLONASS122 [NER] 1 37139C 10041C 21060.00000000 .00000000 00000-0 00000-0 0 607 2 37139 64.0916 256.9317 0029102 14.2929 18.3006 2.13100462 13 QZS1 [QSS] 1 37158C 10045A 21058.00000000 -.00000149 00000-0 00000-0 0 581 2 37158 41.8560 140.0088 0765192 270.7876 243.8969 1.00250335 19 COMPASSI3 [SHA] 1 37384C 11013A 21060.00000000 -.00000141 00000-0 00000-0 0 606 2 37384 59.6301 58.9907 0054191 207.5444 11.8725 1.00283699 18 GALILEO101 [COD] 1 37846C 11060A 21060.99979167 -.00000000 00000-0 00000-0 0 602 2 37846 56.7840 34.2173 0004346 333.1607 356.3154 1.70474819 19 GALILEO101 [ESA] 1 37846C 11060A 21060.99979167 -.00000000 00000-0 00000-0 0 602 2 37846 56.7840 34.2173 0004346 333.1676 356.3085 1.70474820 10 GALILEO101 [GAL] 1 37846C 11060A 21061.01020833 -.00000000 00000-0 00000-0 0 614 2 37846 56.7840 34.2171 0004346 333.1804 2.6886 1.70474823 14 GALILEO102 [COD] 1 37847C 11060B 21060.99979167 -.00000000 00000-0 00000-0 0 603 2 37847 56.7847 34.2168 0005865 316.4406 59.2409 1.70475021 17 GALILEO102 [ESA] 1 37847C 11060B 21060.99979167 -.00000000 00000-0 00000-0 0 603 2 37847 56.7847 34.2168 0005865 316.4428 59.2387 1.70475023 18 GALILEO102 [GAL] 1 37847C 11060B 21061.01020833 -.00000000 00000-0 00000-0 0 615 2 37847 56.7847 34.2165 0005863 316.4482 65.6262 1.70475025 18 GLONASS128 [COD] 1 37867C 11064A 21060.99979167 -.00000000 00000-0 00000-0 0 609 2 37867 64.5534 138.4385 0021117 238.6552 52.6120 2.13101681 15 GLONASS128 [NER] 1 37867C 11064A 21060.00000000 -.00000000 00000-0 00000-0 0 602 2 37867 64.5532 138.4725 0021068 238.6367 5.6250 2.13101704 18 GLONASS129 [COD] 1 37868C 11064B 21060.99979167 -.00000000 00000-0 00000-0 0 600 2 37868 64.5614 138.4979 0018635 239.7840 229.8599 2.13101447 15 GLONASS129 [NER] 1 37868C 11064B 21060.00000000 -.00000000 00000-0 00000-0 0 603 2 37868 64.5612 138.5319 0018564 239.6874 182.9511 2.13101538 13 GLONASS127 [COD] 1 37869C 11064C 21060.99979167 -.00000000 00000-0 00000-0 0 601 2 37869 64.5688 138.5018 0022693 259.1407 168.1049 2.13101597 17 GLONASS127 [NER] 1 37869C 11064C 21060.00000000 -.00000000 00000-0 00000-0 0 604 2 37869 64.5685 138.5357 0022613 259.1832 121.0567 2.13101680 10 COMPASSI5 [SHA] 1 37948C 11073A 21060.00000000 -.00000112 00000-0 00000-0 0 606 2 37948 51.1446 294.8955 0068994 214.7114 105.4652 1.00277146 14 LARES [DGF] 1 38077C 12006A 21061.00000000 .00000005 00000-0 32964-4 0 617 2 38077 69.4947 354.2916 0006789 56.8271 154.6730 12.54930757 15 LARES [HTS] 1 38077C 12006A 21060.98611111 .00000005 00000-0 30205-4 0 609 2 38077 69.4948 354.3161 0006763 57.1247 91.6419 12.54930749 13 LARES [SGF] 1 38077C 12006A 21060.00000000 .00000023 00000-0 14178-3 0 601 2 38077 69.4949 355.9999 0006749 58.2309 316.4640 12.54930604 19 COMPASSM3 [SHA] 1 38250C 12018A 21060.00000000 .00000000 00000-0 00000-0 0 608 2 38250 56.7579 9.1926 0022593 252.2471 48.5501 1.86233995 10 GALILEO103 [COD] 1 38857C 12055A 21060.99979167 -.00000000 00000-0 00000-0 0 600 2 38857 55.0216 154.6932 0003384 256.3870 47.5502 1.70473462 19 GALILEO103 [ESA] 1 38857C 12055A 21060.99979167 -.00000000 00000-0 00000-0 0 600 2 38857 55.0216 154.6932 0003385 256.3807 47.5565 1.70473460 17 GALILEO103 [GAL] 1 38857C 12055A 21061.01020833 -.00000000 00000-0 00000-0 0 612 2 38857 55.0216 154.6929 0003385 256.3697 53.9604 1.70473465 10 GALILEO104 [ESA] 1 38858C 12055B 21060.99979167 -.00000000 00000-0 00000-0 0 601 2 38858 55.0222 154.6927 0002123 258.9058 85.2770 1.70473360 10 GALILEO104 [GAL] 1 38858C 12055B 21061.01020833 -.00000000 00000-0 00000-0 0 613 2 38858 55.0222 154.6924 0002124 258.9092 91.6665 1.70473375 16 SARAL [CNE] 1 39086C 13009A 21061.00000000 .00000065 00000-0 24436-4 0 613 2 39086 98.5439 248.6560 0001087 145.6799 214.3256 14.32045406 17 GLONASS131 [COD] 1 39155C 13019A 21060.99979167 -.00000000 00000-0 00000-0 0 603 2 39155 64.7200 138.7640 0021568 234.3219 101.4441 2.13101649 12 GLONASS131 [NER] 1 39155C 13019A 21060.00000000 -.00000000 00000-0 00000-0 0 606 2 39155 64.7198 138.7978 0021501 234.3281 54.4327 2.13101701 17 IRNSS1A [ISR] 1 39199C 13034A 21060.99979167 .00000153 00000-0 00000-0 0 606 2 39199 31.3973 92.6847 0020475 190.6386 291.6549 1.00273506 17 KOMPSAT5 [KGS] 1 39227C 13042A 21061.00000000 -.00000283 00000-0 -20262-4 0 614 2 39227 97.6259 247.7172 0001872 102.3886 91.6355 15.04511145 16 SWARMB [ESA] 1 39451C 13067A 21061.00000000 .00000977 00000-0 43012-4 0 616 2 39451 87.7588 202.7390 0001844 80.3946 109.5046 15.21932070 13 SWARMA [ESA] 1 39452C 13067B 21061.00000000 .00002488 00000-0 52479-4 0 613 2 39452 87.3622 36.8992 0003803 99.6849 231.3316 15.45271121 18 SWARMC [ESA] 1 39453C 13067C 21061.00000000 .00002478 00000-0 52277-4 0 619 2 39453 87.3474 37.3328 0003804 99.6679 231.6745 15.45271574 16 GLONASS132 [COD] 1 39620C 14012A 21060.99979167 -.00000000 00000-0 00000-0 0 604 2 39620 65.8152 18.9625 0015340 323.3840 47.2909 2.13102856 16 GLONASS132 [NER] 1 39620C 14012A 21060.00000000 -.00000000 00000-0 00000-0 0 607 2 39620 65.8152 18.9962 0015357 323.0973 0.5742 2.13102822 12 IRNSS1B [ISR] 1 39635C 14017A 21060.99979167 .00000156 00000-0 00000-0 0 606 2 39635 28.8774 272.9457 0019475 176.8507 125.1540 1.00272985 13 GLONASS133 [COD] 1 40001C 14032A 21060.99979167 -.00000000 00000-0 00000-0 0 601 2 40001 65.7556 18.8589 0005787 224.4448 6.1181 2.13102216 11 GLONASS133 [NER] 1 40001C 14032A 21060.00000000 -.00000000 00000-0 00000-0 0 604 2 40001 65.7556 18.8926 0005842 225.1608 318.4010 2.13102173 16 GALILEO201 [COD] 1 40128C 14050A 21060.99979167 .00000000 00000-0 00000-0 0 600 2 40128 50.5117 351.1060 1651266 107.7419 241.1524 1.85518435 18 GALILEO201 [ESA] 1 40128C 14050A 21060.99979167 .00000000 00000-0 00000-0 0 600 2 40128 50.5117 351.1060 1651266 107.7418 241.1524 1.85518435 17 GALILEO201 [GAL] 1 40128C 14050A 21061.01020833 .00000000 00000-0 00000-0 0 612 2 40128 50.5117 351.1056 1651266 107.7422 248.1093 1.85518436 16 GALILEO202 [COD] 1 40129C 14050B 21060.99979167 .00000000 00000-0 00000-0 0 601 2 40129 50.5445 350.1515 1648678 108.5518 64.7554 1.85519406 10 GALILEO202 [ESA] 1 40129C 14050B 21060.99979167 .00000000 00000-0 00000-0 0 601 2 40129 50.5445 350.1515 1648678 108.5518 64.7554 1.85519406 10 GALILEO202 [GAL] 1 40129C 14050B 21061.01020833 .00000000 00000-0 00000-0 0 613 2 40129 50.5445 350.1511 1648678 108.5522 71.7123 1.85519403 18 IRNSS1C [ISR] 1 40269C 14061A 21060.99979167 -.00000075 00000-0 00000-0 0 601 2 40269 2.1332 155.4887 0017612 10.8326 76.5843 1.00273253 16 GLONASS134 [COD] 1 40315C 14075A 21060.99979167 .00000000 00000-0 00000-0 0 605 2 40315 63.8047 257.7450 0015470 206.7959 189.7184 2.13101069 10 GLONASS134 [NER] 1 40315C 14075A 21060.00000000 .00000000 00000-0 00000-0 0 608 2 40315 63.8049 257.7803 0015461 206.8709 142.6387 2.13101035 14 GALILEO203 [COD] 1 40544C 15017A 21060.99979167 -.00000000 00000-0 00000-0 0 607 2 40544 56.5780 34.3154 0004896 275.8187 187.8721 1.70474270 12 GALILEO203 [ESA] 1 40544C 15017A 21060.99979167 -.00000000 00000-0 00000-0 0 607 2 40544 56.5780 34.3154 0004896 275.8191 187.8718 1.70474270 13 GALILEO203 [GAL] 1 40544C 15017A 21061.01020833 -.00000000 00000-0 00000-0 0 619 2 40544 56.5780 34.3152 0004896 275.8216 194.2622 1.70474269 13 GALILEO204 [ESA] 1 40545C 15017B 21060.99979167 -.00000000 00000-0 00000-0 0 608 2 40545 56.5846 34.3323 0002457 263.7612 334.4473 1.70474596 19 GALILEO204 [GAL] 1 40545C 15017B 21061.01020833 -.00000000 00000-0 00000-0 0 610 2 40545 56.5846 34.3321 0002458 263.7684 340.8329 1.70474596 18 IRNSS1D [ISR] 1 40547C 15018A 21060.99979167 -.00000227 00000-0 00000-0 0 602 2 40547 28.7271 273.0105 0019625 178.9477 179.7699 1.00273482 19 GALILEO205 [COD] 1 40889C 15045A 21060.99979167 .00000000 00000-0 00000-0 0 609 2 40889 55.9546 275.0017 0006032 22.6788 67.1988 1.70474692 11 GALILEO205 [ESA] 1 40889C 15045A 21060.99979167 .00000000 00000-0 00000-0 0 609 2 40889 55.9546 275.0017 0006032 22.6793 67.1983 1.70474693 13 GALILEO205 [GAL] 1 40889C 15045A 21061.01020833 .00000000 00000-0 00000-0 0 611 2 40889 55.9546 275.0014 0006032 22.6802 73.5904 1.70474693 15 GALILEO206 [COD] 1 40890C 15045B 21060.99979167 .00000000 00000-0 00000-0 0 601 2 40890 55.9537 274.9980 0004214 19.7280 295.4244 1.70474722 19 GALILEO206 [ESA] 1 40890C 15045B 21060.99979167 .00000000 00000-0 00000-0 0 601 2 40890 55.9537 274.9980 0004214 19.7277 295.4247 1.70474722 18 GALILEO206 [GAL] 1 40890C 15045B 21061.01020833 .00000000 00000-0 00000-0 0 613 2 40890 55.9537 274.9977 0004214 19.7306 301.8148 1.70474721 18 GALILEO209 [COD] 1 41174C 15079A 21060.99979167 -.00000000 00000-0 00000-0 0 605 2 41174 55.0368 154.3930 0003876 309.2967 259.1508 1.70473619 10 GALILEO209 [ESA] 1 41174C 15079A 21060.99979167 -.00000000 00000-0 00000-0 0 605 2 41174 55.0368 154.3930 0003876 309.2963 259.1513 1.70473618 11 GALILEO209 [GAL] 1 41174C 15079A 21061.01020833 -.00000000 00000-0 00000-0 0 617 2 41174 55.0368 154.3927 0003876 309.2944 265.5461 1.70473625 17 GALILEO208 [COD] 1 41175C 15079B 21060.99979167 -.00000000 00000-0 00000-0 0 606 2 41175 55.0351 154.3921 0003071 309.3508 124.2693 1.70473651 15 GALILEO208 [ESA] 1 41175C 15079B 21060.99979167 -.00000000 00000-0 00000-0 0 606 2 41175 55.0351 154.3921 0003071 309.3463 124.2738 1.70473651 15 GALILEO208 [GAL] 1 41175C 15079B 21061.01020833 -.00000000 00000-0 00000-0 0 618 2 41175 55.0351 154.3918 0003070 309.3349 130.6782 1.70473659 11 JASON3 [CNE] 1 41240C 16002A 21061.00000000 .00000041 00000-0 17804-3 0 618 2 41240 66.0412 190.2032 0007513 274.1413 71.4052 12.80929363 10 JASON3 [HTS] 1 41240C 16002A 21060.98611111 .00000054 00000-0 23360-3 0 602 2 41240 66.0413 190.2321 0007509 274.1790 7.3277 12.80929364 13 JASON3 [SGF] 1 41240C 16002A 21060.00000000 .00000117 00000-0 50654-3 0 600 2 41240 66.0416 192.2803 0007491 273.8786 140.7759 12.80928917 14 IRNSS1E [ISR] 1 41241C 16003A 21060.99979167 -.00000227 00000-0 00000-0 0 609 2 41241 28.9424 92.0695 0019966 190.7053 348.9355 1.00276448 10 GLONASS135 [COD] 1 41330C 16008A 21060.99979167 -.00000000 00000-0 00000-0 0 602 2 41330 65.5576 18.6676 0009631 226.8182 186.6834 2.13102564 10 GLONASS135 [NER] 1 41330C 16008A 21060.00000000 -.00000000 00000-0 00000-0 0 605 2 41330 65.5576 18.7017 0009722 226.9405 139.5582 2.13102528 17 IRNSS1F [ISR] 1 41384C 16015A 21060.99979167 .00000245 00000-0 00000-0 0 609 2 41384 1.9694 197.2747 0022784 184.6986 170.2733 1.00272753 14 COMPASSI6B [SHA] 1 41434C 16021A 21060.00000000 -.00000094 00000-0 00000-0 0 608 2 41434 57.4103 57.7789 0040392 216.5997 339.5063 1.00290543 12 GALILEO211 [COD] 1 41549C 16030A 21060.99979167 .00000000 00000-0 00000-0 0 608 2 41549 56.0973 274.8812 0004252 352.4254 6.7658 1.70474431 19 GALILEO211 [ESA] 1 41549C 16030A 21060.99979167 .00000000 00000-0 00000-0 0 608 2 41549 56.0973 274.8812 0004252 352.4276 6.7636 1.70474432 10 GALILEO211 [GAL] 1 41549C 16030A 21061.01020833 .00000000 00000-0 00000-0 0 610 2 41549 56.0973 274.8809 0004252 352.4330 13.1511 1.70474433 12 GALILEO210 [COD] 1 41550C 16030B 21060.99979167 .00000000 00000-0 00000-0 0 600 2 41550 56.0968 274.8828 0002545 334.3717 205.0782 1.70474516 14 GALILEO210 [ESA] 1 41550C 16030B 21060.99979167 .00000000 00000-0 00000-0 0 600 2 41550 56.0968 274.8828 0002545 334.3673 205.0826 1.70474517 15 GALILEO210 [GAL] 1 41550C 16030B 21061.01020833 .00000000 00000-0 00000-0 0 612 2 41550 56.0968 274.8825 0002545 334.3654 211.4774 1.70474517 14 GEOIK2 [SPN] 1 41579C 16034A 21060.00000000 .00000139 00000-0 12120-3 0 600 2 41579 99.2423 75.1420 0000914 73.6073 285.3382 13.85903510 13 GALILEO207 [COD] 1 41859C 16069A 21060.99979167 -.00000000 00000-0 00000-0 0 605 2 41859 54.6955 154.6914 0003841 292.9983 95.8037 1.70473550 16 GALILEO207 [ESA] 1 41859C 16069A 21060.99979167 -.00000000 00000-0 00000-0 0 605 2 41859 54.6955 154.6914 0003841 292.9965 95.8056 1.70473549 15 GALILEO207 [GAL] 1 41859C 16069A 21061.01020833 -.00000000 00000-0 00000-0 0 617 2 41859 54.6955 154.6911 0003841 292.9920 102.2029 1.70473557 15 GALILEO212 [COD] 1 41860C 16069B 21060.99979167 -.00000000 00000-0 00000-0 0 607 2 41860 54.6930 154.6899 0002713 320.7908 157.9814 1.70473606 12 GALILEO212 [ESA] 1 41860C 16069B 21060.99979167 -.00000000 00000-0 00000-0 0 607 2 41860 54.6930 154.6899 0002713 320.7832 157.9890 1.70473606 12 GALILEO212 [GAL] 1 41860C 16069B 21061.01020833 -.00000000 00000-0 00000-0 0 619 2 41860 54.6930 154.6896 0002713 320.7712 164.3939 1.70473614 11 GALILEO213 [COD] 1 41861C 16069C 21060.99979167 -.00000000 00000-0 00000-0 0 608 2 41861 54.6955 154.6942 0003411 266.7551 347.5626 1.70473620 12 GALILEO213 [ESA] 1 41861C 16069C 21060.99979167 -.00000000 00000-0 00000-0 0 608 2 41861 54.6955 154.6942 0003412 266.7496 347.5680 1.70473619 19 GALILEO213 [GAL] 1 41861C 16069C 21061.01020833 -.00000000 00000-0 00000-0 0 610 2 41861 54.6955 154.6939 0003412 266.7369 353.9738 1.70473624 15 GALILEO214 [COD] 1 41862C 16069D 21060.99979167 -.00000000 00000-0 00000-0 0 609 2 41862 54.6938 154.6893 0002550 271.1135 252.9663 1.70473701 10 GALILEO214 [ESA] 1 41862C 16069D 21060.99979167 -.00000000 00000-0 00000-0 0 609 2 41862 54.6938 154.6893 0002550 271.1134 252.9664 1.70473701 10 GALILEO214 [GAL] 1 41862C 16069D 21061.01020833 -.00000000 00000-0 00000-0 0 611 2 41862 54.6938 154.6890 0002550 271.1053 259.3674 1.70473707 15 QZS2 [QSS] 1 42738C 17028A 21058.00000000 -.00000130 00000-0 00000-0 0 589 2 42738 42.5647 270.8522 0748191 270.1802 116.9477 1.00267940 15 TECHNOSAT [DLR] 1 42829C 17042E 21061.00000000 .00000443 00000-0 44606-4 0 614 2 42829 97.4849 296.1401 0015362 141.8948 64.8778 14.91224368 14 QZS3 [QSS] 1 42917C 17048A 21058.00000000 -.00000258 00000-0 00000-0 0 581 2 42917 0.0605 147.5274 0002129 213.0349 283.5002 1.00268361 10 GLONASS137 [COD] 1 42939C 17055A 21060.99979167 .00000000 00000-0 00000-0 0 600 2 42939 64.2626 258.1446 0004933 248.9534 282.5432 2.13101710 12 GLONASS137 [NER] 1 42939C 17055A 21060.00000000 .00000000 00000-0 00000-0 0 603 2 42939 64.2628 258.1793 0004905 249.4394 235.0510 2.13101736 16 QZS4 [QSS] 1 42965C 17062A 21058.00000000 -.00000144 00000-0 00000-0 0 584 2 42965 40.8305 8.2572 0749378 269.5131 18.0296 1.00286523 11 BEIDOU3M2 [SHA] 1 43002C 17069B 21060.00000000 -.00000000 00000-0 00000-0 0 601 2 43002 55.3114 127.6119 0009392 304.6081 77.9135 1.86231196 12 GALILEO215 [COD] 1 43055C 17079A 21060.99979167 .00000000 00000-0 00000-0 0 606 2 43055 56.0722 274.7209 0001970 343.3378 239.6538 1.70473648 17 GALILEO215 [ESA] 1 43055C 17079A 21060.99979167 .00000000 00000-0 00000-0 0 606 2 43055 56.0722 274.7209 0001970 343.3361 239.6556 1.70473649 10 GALILEO215 [GAL] 1 43055C 17079A 21061.01020833 .00000000 00000-0 00000-0 0 618 2 43055 56.0722 274.7206 0001970 343.3419 246.0427 1.70473648 19 GALILEO216 [COD] 1 43056C 17079B 21060.99979167 .00000000 00000-0 00000-0 0 607 2 43056 56.0726 274.7205 0003185 311.7328 91.6788 1.70473780 12 GALILEO216 [ESA] 1 43056C 17079B 21060.99979167 .00000000 00000-0 00000-0 0 607 2 43056 56.0726 274.7205 0003185 311.7321 91.6795 1.70473781 14 GALILEO216 [GAL] 1 43056C 17079B 21061.01020833 .00000000 00000-0 00000-0 0 619 2 43056 56.0726 274.7202 0003184 311.7304 98.0741 1.70473782 14 GALILEO217 [COD] 1 43057C 17079C 21060.99979167 .00000000 00000-0 00000-0 0 608 2 43057 56.0707 274.7209 0003419 329.1467 299.1866 1.70473729 18 GALILEO217 [ESA] 1 43057C 17079C 21060.99979167 .00000000 00000-0 00000-0 0 608 2 43057 56.0707 274.7209 0003419 329.1436 299.1898 1.70473728 18 GALILEO217 [GAL] 1 43057C 17079C 21061.01020833 .00000000 00000-0 00000-0 0 610 2 43057 56.0707 274.7206 0003418 329.1403 305.5860 1.70473727 18 GALILEO218 [COD] 1 43058C 17079D 21060.99979167 .00000000 00000-0 00000-0 0 609 2 43058 56.0708 274.7183 0003371 302.5938 190.7093 1.70473724 19 GALILEO218 [ESA] 1 43058C 17079D 21060.99979167 .00000000 00000-0 00000-0 0 609 2 43058 56.0708 274.7183 0003371 302.5904 190.7128 1.70473725 12 GALILEO218 [GAL] 1 43058C 17079D 21061.01020833 .00000000 00000-0 00000-0 0 611 2 43058 56.0708 274.7180 0003371 302.5882 197.1079 1.70473725 10 SNET4 [DLR] 1 43188C 18014J 21061.00000000 .00000770 00000-0 67042-4 0 615 2 43188 97.6832 330.4945 0012570 85.4007 220.9975 14.96973047 13 BEIDOU3M3 [SHA] 1 43208C 18018B 21060.00000000 -.00000000 00000-0 00000-0 0 604 2 43208 55.2704 127.7113 0009069 294.9441 313.9030 1.86231477 10 PAZ [HDS] 1 43215C 18020A 21061.00000000 .00000600 00000-0 28618-4 0 611 2 43215 97.4474 70.0922 0001725 97.9273 234.3242 15.19145935 18 BEIDOU3M9 [SHA] 1 43245C 18029A 21060.00000000 .00000000 00000-0 00000-0 0 606 2 43245 55.3217 6.6269 0001609 334.1386 124.3977 1.86232254 13 BEIDOU3M10 [SHA] 1 43246C 18029B 21060.00000000 .00000000 00000-0 00000-0 0 607 2 43246 55.3184 6.6579 0005417 343.7629 160.8750 1.86232428 15 IRNSS1I [ISR] 1 43286C 18035A 21060.99979167 .00000156 00000-0 00000-0 0 607 2 43286 28.8621 105.1106 0020255 187.9022 281.9810 1.00271799 15 GRACEFO1 [GFZ] 1 43476C 18047A 21060.99979167 .00000814 00000-0 33411-4 0 608 2 43476 88.9773 102.8716 0017210 8.6316 274.6325 15.24192762 17 GRACEFO2 [GFZ] 1 43477C 18047B 21060.99979167 .00000778 00000-0 31932-4 0 604 2 43477 88.9773 102.8748 0016991 8.4237 273.2453 15.24192492 15 GLONASS138 [COD] 1 43508C 18053A 21060.99979167 -.00000000 00000-0 00000-0 0 603 2 43508 64.8841 138.6654 0008411 235.0102 328.4931 2.13102370 13 GLONASS138 [NER] 1 43508C 18053A 21060.00000000 -.00000000 00000-0 00000-0 0 606 2 43508 64.8839 138.6990 0008377 234.6761 281.8199 2.13102409 11 GALILEO221 [COD] 1 43564C 18060A 21060.99979167 -.00000000 00000-0 00000-0 0 603 2 43564 56.9637 34.0097 0005858 287.0337 268.5768 1.70475255 18 GALILEO221 [ESA] 1 43564C 18060A 21060.99979167 -.00000000 00000-0 00000-0 0 603 2 43564 56.9637 34.0097 0005857 287.0343 268.5762 1.70475255 18 GALILEO221 [GAL] 1 43564C 18060A 21061.01020833 -.00000000 00000-0 00000-0 0 615 2 43564 56.9637 34.0094 0005857 287.0354 274.9681 1.70475254 17 GALILEO222 [COD] 1 43565C 18060B 21060.99979167 -.00000000 00000-0 00000-0 0 604 2 43565 56.9659 34.0094 0005684 293.7236 126.9692 1.70475284 14 GALILEO222 [ESA] 1 43565C 18060B 21060.99979167 -.00000000 00000-0 00000-0 0 604 2 43565 56.9659 34.0094 0005684 293.7222 126.9707 1.70475284 16 GALILEO222 [GAL] 1 43565C 18060B 21061.01020833 -.00000000 00000-0 00000-0 0 616 2 43565 56.9659 34.0091 0005683 293.7193 133.3664 1.70475286 15 GALILEO219 [COD] 1 43566C 18060C 21060.99979167 -.00000000 00000-0 00000-0 0 605 2 43566 56.9664 34.0113 0005317 290.3478 355.0381 1.70475098 10 GALILEO219 [ESA] 1 43566C 18060C 21060.99979167 -.00000000 00000-0 00000-0 0 605 2 43566 56.9664 34.0113 0005317 290.3526 355.0333 1.70475099 12 GALILEO219 [GAL] 1 43566C 18060C 21061.01020833 -.00000000 00000-0 00000-0 0 617 2 43566 56.9664 34.0110 0005316 290.3588 1.4201 1.70475101 16 GALILEO220 [COD] 1 43567C 18060D 21060.99979167 -.00000000 00000-0 00000-0 0 606 2 43567 56.9661 34.0117 0005415 291.1168 219.3233 1.70475161 15 GALILEO220 [ESA] 1 43567C 18060D 21060.99979167 -.00000000 00000-0 00000-0 0 606 2 43567 56.9661 34.0117 0005415 291.1192 219.3209 1.70475160 14 GALILEO220 [GAL] 1 43567C 18060D 21061.01020833 -.00000000 00000-0 00000-0 0 618 2 43567 56.9661 34.0114 0005414 291.1257 225.7074 1.70475158 10 HY2B [SHA] 1 43655C 18081A 21061.00000000 .00000266 00000-0 25988-3 0 610 2 43655 99.3494 71.1043 0001145 36.5587 317.1380 13.79298962 14 GLONASS139 [COD] 1 43687C 18086A 21060.99979167 .00000000 00000-0 00000-0 0 606 2 43687 64.4767 258.3336 0007642 280.0189 207.0302 2.13101845 11 GLONASS139 [NER] 1 43687C 18086A 21060.00000000 .00000000 00000-0 00000-0 0 609 2 43687 64.4769 258.3679 0007653 280.4338 159.6094 2.13101849 19 GLONASS140 [COD] 1 44299C 19030A 21060.99979167 .00000000 00000-0 00000-0 0 606 2 44299 64.5473 258.1743 0011234 299.4857 322.4492 2.13101673 15 GLONASS140 [NER] 1 44299C 19030A 21060.00000000 .00000000 00000-0 00000-0 0 609 2 44299 64.5475 258.2087 0011226 299.5453 275.3842 2.13101710 10 GLONASS141 [COD] 1 44850C 19088A 21060.99979167 -.00000000 00000-0 00000-0 0 603 2 44850 64.8687 138.5278 0012666 263.7140 343.6395 2.13102159 18 GLONASS141 [NER] 1 44850C 19088A 21060.00000000 -.00000000 00000-0 00000-0 0 606 2 44850 64.8684 138.5613 0012621 263.6643 296.6828 2.13102175 12 GLONASS142 [COD] 1 45358C 20018A 21060.99979167 -.00000000 00000-0 00000-0 0 602 2 45358 64.8887 19.6647 0010008 262.0144 195.4971 2.13102399 16 HY2C [SHA] 1 46469C 20066A 21060.00000000 .00000117 00000-0 10650-3 0 605 2 46469 65.9998 350.9800 0004571 266.7146 135.6004 13.83374936 18 SENTINEL6A [EUM] 1 46984C 20086A 21061.00000000 .00000028 00000-0 12016-3 0 610 2 46984 66.0413 190.3293 0007809 271.8127 72.1486 12.80929519 17